RH
34 35 41 34 38 39 46 46 48 52 50 56 56 56 57 54 52 56 56 55 52 50 46 46 45 43 47 56 62 61 77 83 84 88 92 93 90 94 96 95 90 94 96 94
24 38 30 29 32 40 43 46 50 56 50 58 64 58 57 55 53 52 53 53 50 49 50 46 44 44 48 54 57 64 71 82 79 80 88 88 90 91 95 96 95 92 96 95
23 24 24 27 29 40 50 45 50 48 60 62 63 63 71 61 57 51 47 46 46 48 50 50 49 45 47 54 58 59 69 77 77 83 89 94 92 95 95 95 98 96 92 94
22 21 24 30 29 29 42 35 37 51 54 56 59 65 62 64 60 57 47 43 42 42 41 43 46 46 45 47 51 55 68 77 76 87 89 91 90 93 96 94 97 96 92 92
21 23 28 28 28 31 34 38 45 51 62 70 62 67 54 72 68 53 49 46 42 38 35 40 44 44 44 44 49 54 67 75 76 83 85 85 91 90 95 95 95 95 92 92
19 15 15 17 19 33 38 45 52 66 75 64 58 56 47 52 48 49 42 42 42 42 40 37 40 41 45 45 50 57 70 76 79 83 86 88 88 90 94 96 97 98 96 95
17 16 13 11 12 32 50 60 81 72 76 66 78 70 48 39 40 39 44 42 39 39 41 41 44 43 48 50 52 59 71 76 80 81 82 87 87 90 91 92 96 97 97 96
19 17 12 10 10 12 53 52 70 70 81 68 79 68 39 37 35 38 39 38 44 42 40 41 43 43 46 49 53 56 69 70 77 78 81 86 87 88 87 92 94 95 97 91
20 18 11 10 9 17 33 45 44 42 43 66 64 53 31 26 30 41 41 40 43 41 40 38 40 41 44 47 51 54 66 68 77 73 80 88 89 92 87 91 92 94 94 92
14 16 11 9 8 10 25 26 23 27 38 47 31 45 42 31 23 36 39 42 39 41 40 38 39 41 43 42 44 50 59 67 72 71 76 81 85 88 90 91 91 92 95 93
13 15 14 11 11 10 14 24 19 22 27 26 29 33 32 29 25 26 36 38 43 42 38 38 38 41 42 43 44 48 57 63 69 71 76 81 84 89 91 86 91 91 94 96
20 13 19 10 10 11 13 12 16 18 18 28 26 21 12 24 23 28 34 39 40 40 36 38 38 42 44 46 47 53 60 63 65 70 80 78 86 90 86 86 92 95 94 94
28 14 18 16 15 14 12 13 16 16 20 24 20 15 12 14 21 29 32 34 39 43 42 38 40 43 45 48 56 59 64 64 66 74 78 82 87 88 86 85 92 94 91 91
46 20 17 22 18 17 15 11 13 13 17 19 17 12 10 8 12 23 31 33 34 40 42 38 40 42 44 50 60 66 67 64 72 74 78 88 88 87 87 87 88 94 93 91
32 39 35 28 29 17 12 12 11 12 13 13 11 12 9 9 9 15 27 32 36 39 40 38 40 43 46 53 62 66 68 73 79 83 85 87 88 90 92 91 89 94 94 92
39 40 54 37 30 23 14 13 11 12 14 11 16 13 10 10 20 18 17 29 36 38 41 40 41 46 46 52 60 69 74 77 82 84 85 89 92 92 92 93 93 93 94 95
39 41 41 41 40 29 27 19 16 18 14 12 15 11 16 12 15 18 23 26 27 33 40 46 42 41 42 49 60 68 75 78 82 82 85 90 91 94 93 94 94 92 93 94
38 41 54 44 47 44 22 22 19 16 17 10 13 13 13 13 15 17 23 24 27 31 36 45 40 39 40 44 55 68 74 81 82 84 88 89 91 92 94 95 94 93 94 94
40 39 45 46 61 43 28 31 33 33 23 21 16 16 14 28 49 38 42 30 26 37 43 37 37 37 48 54 64 73 78 81 82 84 87 89 88 91 93 93 94 92 95 95
80 73 43 75 56 55 40 42 45 34 30 47 48 39 38 47 26 28 48 46 38 42 46 45 40 42 47 56 64 75 79 83 84 83 83 86 86 88 90 90 91 91 93 91
52 62 69 83 64 49 72 65 51 36 41 64 53 50 50 39 30 31 53 62 51 48 52 47 43 44 53 62 64 72 74 78 74 73 79 85 85 85 86 88 88 92 91 91
40 51 71 83 79 59 76 63 59 75 88 76 61 57 41 37 48 70 68 68 64 60 56 48 45 49 54 64 65 71 75 70 76 77 79 84 84 77 80 88 89 93 92 93
65 58 61 66 58 81 79 84 78 84 93 83 76 64 58 44 63 69 69 68 63 59 61 61 56 56 58 63 60 66 69 74 76 79 81 84 85 84 85 88 90 89 92 88
70 83 91 75 75 80 63 74 78 81 85 78 68 68 60 42 62 71 69 65 61 57 56 67 61 60 64 68 64 63 73 77 75 78 79 80 84 87 87 82 84 83 89 88
69 82 94 91 79 62 73 62 79 82 80 74 69 71 77 56 50 66 65 64 62 67 72 82 72 70 71 70 67 68 77 77 74 74 75 78 76 84 89 86 89 84 86 83
74 92 88 89 79 88 81 74 74 88 85 77 69 76 78 92 71 71 70 69 75 78 87 88 88 76 80 79 79 81 80 78 77 79 80 80 81 91 91 96 98 100 99 100
Wind_Speed
0 4 6 9 7 3 5 3 6 4 3 3 6 5 5 14 12 12 12 13 14 16 14 15 13 10 10 7 8 9 8 7 5 3 3 2 3 2 2 2 4 5 5 6
4 4 7 4 7 6 4 4 4 2 1 1 1 7 7 15 19 18 17 14 15 12 9 12 11 10 14 13 12 10 11 9 8 4 3 3 3 2 2 2 3 3 4 2
7 5 5 5 5 6 3 8 7 4 2 2 3 5 4 6 4 9 13 14 13 16 14 11 11 15 12 12 14 13 13 10 8 6 5 3 3 3 1 2 1 4 8 8
6 5 4 3 3 7 6 13 4 6 3 3 5 6 6 6 9 10 14 18 18 18 14 12 13 14 15 16 12 12 11 10 8 8 7 6 5 5 4 3 2 3 4 5
8 7 4 6 6 6 5 5 5 4 3 1 2 2 5 8 8 15 18 18 18 18 19 16 17 18 18 14 14 13 11 9 9 10 9 7 4 3 2 3 6 3 2 3
7 1 5 6 4 5 8 7 9 4 3 3 3 5 10 7 8 9 14 20 21 18 18 16 17 15 14 12 11 11 11 11 9 10 9 10 10 6 4 3 3 3 3 3
3 3 3 3 4 4 8 7 4 4 4 7 3 2 13 10 9 6 12 15 16 16 14 15 16 16 13 15 14 12 12 11 11 11 11 10 10 8 8 6 5 6 3 3
7 7 8 4 9 9 6 9 8 8 6 4 3 7 11 6 4 6 10 8 10 15 15 18 19 17 18 18 16 15 13 12 12 13 12 9 8 6 5 6 5 6 4 4
6 7 5 5 6 11 6 4 6 8 3 1 5 9 12 9 5 4 8 8 11 14 16 18 17 18 18 17 18 17 14 14 13 14 10 9 8 7 7 7 5 4 3 2
8 2 6 6 4 4 7 7 4 3 4 5 6 7 8 9 13 6 8 10 9 11 14 14 15 17 17 17 18 16 15 16 14 13 11 9 10 8 7 6 6 6 5 5
5 6 4 3 5 10 1 0 5 6 5 8 4 9 10 13 12 7 10 9 10 11 15 16 16 16 17 15 15 15 14 14 12 12 10 10 9 8 7 7 6 5 6 6
3 5 5 12 3 2 6 9 8 7 6 3 3 9 8 13 7 7 8 9 9 10 13 14 17 16 15 16 15 16 14 14 14 13 11 11 9 8 8 8 6 6 6 5
4 1 1 9 8 1 5 6 5 4 4 8 6 11 3 7 8 8 9 8 8 7 8 11 11 15 17 17 16 15 14 15 12 12 11 10 10 10 10 9 6 7 6 6
5 3 6 8 8 2 5 6 7 7 5 6 8 10 8 9 8 6 8 8 8 10 10 10 13 14 16 16 15 14 14 13 12 13 12 12 12 11 10 8 7 7 7 6
4 4 3 8 9 7 8 6 8 6 7 7 11 12 13 12 11 10 5 6 7 8 10 13 15 15 15 15 13 12 11 12 13 13 13 13 11 9 8 8 7 6 7 6
3 2 1 5 6 2 6 10 10 5 3 8 1 8 13 11 4 5 12 10 9 8 11 12 14 15 15 15 15 14 12 12 13 13 13 11 11 11 11 9 8 6 7 6
3 2 3 5 6 7 3 9 9 7 6 7 5 14 2 6 10 10 11 9 11 13 13 13 17 18 17 17 15 16 14 12 14 13 12 12 12 12 11 10 8 8 8 7
3 3 2 4 5 3 9 6 3 9 6 9 6 9 7 10 7 9 6 8 9 10 13 12 12 13 15 14 15 11 13 14 14 13 12 12 12 12 11 11 10 8 6 9
11 4 3 3 3 7 6 3 3 4 7 7 7 8 7 3 1 6 7 9 11 10 10 14 16 17 13 15 13 13 13 13 13 14 14 13 14 12 12 12 12 10 8 7
6 2 4 3 5 4 2 9 13 8 5 8 11 14 5 4 3 9 6 7 8 7 8 9 10 9 12 12 14 14 14 14 15 15 16 14 14 13 14 13 12 9 8 8
2 1 7 4 4 7 3 18 4 3 6 18 14 15 6 8 6 6 6 5 6 7 9 10 12 14 14 15 16 16 15 17 18 15 13 13 14 15 14 11 9 10 10 9
6 4 4 2 2 6 6 6 4 6 9 14 13 11 8 8 6 2 4 4 4 7 9 10 12 12 13 15 16 16 17 18 13 12 13 13 13 11 9 12 10 10 10 10
3 5 4 7 5 3 1 3 2 4 12 10 12 18 17 4 3 2 3 4 3 6 6 6 7 7 9 15 16 17 18 12 13 13 13 13 11 10 9 11 10 8 9 8
3 0 2 3 1 3 3 2 1 8 11 14 14 17 15 5 4 2 2 3 4 5 4 2 6 8 9 10 14 16 8 11 15 15 14 12 12 11 10 9 8 8 8 8
5 4 1 5 5 10 4 9 11 17 13 12 13 12 11 6 5 5 3 2 4 4 3 2 3 6 8 10 11 8 9 12 13 12 11 11 9 10 8 7 5 9 9 11
3 4 3 4 1 3 10 11 18 14 16 13 12 15 11 10 6 3 6 4 3 6 5 4 2 6 7 9 9 9 12 13 12 11 9 9 9 9 8 7 5 8 5 5
Wind_Direction
60 107 190 202 170 144 138 142 195 232 200 153 216 270 211 175 180 185 194 191 191 204 200 217 211 185 183 179 174 183 179 186 156 150 144 160 202 179 216 200 205 188 192 184
11 216 223 109 145 125 129 193 243 307 117 136 308 245 198 185 195 189 191 201 202 209 190 201 209 188 186 186 189 183 194 183 187 176 157 151 160 152 127 191 218 165 120 243
178 231 146 155 127 117 189 201 209 213 133 179 316 274 226 197 171 193 208 207 209 202 205 196 190 198 185 191 191 190 193 185 186 179 121 94 82 78 90 214 144 194 164 201
221 260 194 147 202 148 195 226 206 133 94 225 103 286 250 201 206 209 203 204 205 206 206 195 191 194 197 204 194 192 184 179 181 166 159 161 177 172 194 188 186 193 210 205
232 178 163 209 192 172 232 125 117 95 85 21 227 47 262 120 224 232 210 206 204 202 201 194 189 193 201 194 192 192 180 175 181 181 180 180 177 152 139 159 160 198 263 269
203 220 157 208 174 134 137 72 43 62 86 317 230 127 285 181 204 192 208 209 199 194 200 195 191 187 192 194 186 179 177 181 179 182 187 185 188 164 159 184 169 194 208 202
357 223 259 147 136 50 81 74 17 356 3 228 277 90 241 275 230 231 195 209 200 203 189 181 179 181 177 185 186 179 179 187 184 186 193 193 196 177 190 186 174 184 199 208
161 315 185 194 180 182 182 148 153 188 204 252 73 233 253 244 258 202 194 195 169 186 191 185 183 181 180 184 185 187 184 193 188 192 196 194 197 187 190 186 192 195 192 185
137 262 286 188 158 144 184 162 178 102 22 78 223 283 302 282 319 175 195 190 190 185 185 193 183 180 181 183 185 191 184 193 189 197 186 184 184 178 187 194 191 157 172 158
213 277 225 258 101 69 155 164 85 13 147 233 285 288 248 289 283 192 209 206 208 188 189 191 184 184 184 186 186 188 183 187 187 189 184 186 185 186 185 169 193 192 149 148
145 143 245 132 180 168 39 151 57 120 133 168 211 258 224 244 249 247 226 208 203 189 186 187 186 186 185 182 183 186 182 182 178 184 184 176 182 178 171 192 189 179 148 151
199 157 195 208 193 180 170 193 149 131 239 238 196 262 229 235 248 242 227 214 200 189 177 188 187 173 173 180 186 181 179 183 185 178 175 182 171 165 179 199 194 150 174 157
172 229 7 332 352 21 197 193 139 119 100 193 143 263 333 283 267 257 231 208 201 185 175 178 179 178 180 183 185 181 177 188 181 166 171 173 174 175 192 198 175 159 170 183
95 115 159 203 211 180 178 188 190 127 114 171 219 265 283 276 270 269 237 231 195 168 169 178 180 187 185 186 184 180 182 179 170 167 172 177 179 183 191 189 176 168 170 185
110 166 211 248 255 205 228 191 179 153 184 165 240 198 248 237 243 241 244 177 172 175 173 183 182 186 186 182 183 187 177 170 163 170 173 187 177 173 171 183 187 163 171 184
8 239 148 296 351 310 242 231 180 226 155 271 195 270 232 257 280 254 258 162 177 192 192 188 180 185 185 180 180 177 172 165 161 175 178 173 162 170 180 185 194 178 168 175
326 97 40 274 338 320 303 205 179 203 195 156 166 235 77 245 239 236 239 207 192 181 187 187 188 186 181 180 177 179 172 158 168 175 171 172 169 176 182 180 183 196 192 172
265 133 130 246 357 254 244 308 216 207 199 204 269 259 218 235 247 271 225 212 211 176 192 197 187 184 188 177 181 169 158 166 170 173 172 176 173 179 176 174 185 200 183 194
209 145 215 180 193 284 326 23 356 244 249 187 231 273 260 233 158 293 219 213 214 183 187 194 186 178 168 170 166 158 162 167 170 176 180 179 178 177 178 185 186 190 186 193
100 75 155 133 161 199 244 319 323 325 270 25 337 297 297 199 133 253 213 203 207 187 157 160 158 139 159 163 156 157 167 170 181 182 188 180 178 179 186 189 188 184 188 198
103 188 181 164 214 272 25 311 351 145 261 323 330 297 232 225 210 289 157 199 187 166 147 139 149 167 171 160 160 169 173 186 193 185 178 178 183 186 188 180 177 181 185 185
168 155 212 140 149 245 347 14 45 280 302 301 330 313 259 247 302 291 105 113 114 125 141 155 158 165 166 166 166 173 187 193 180 175 177 181 187 186 175 178 181 179 180 188
243 185 204 180 220 200 319 164 229 303 291 298 314 307 302 215 210 142 98 95 114 117 112 150 150 156 175 173 177 181 205 170 164 170 178 178 175 182 176 177 181 181 183 189
286 172 193 6 29 273 259 68 348 328 307 307 305 295 295 249 162 99 121 98 73 68 75 72 159 171 176 181 194 204 165 163 165 175 181 176 175 174 175 181 182 189 187 189
239 337 309 283 325 334 109 4 339 330 327 311 328 322 329 307 207 173 157 73 47 50 80 93 193 200 201 183 193 175 162 161 172 175 171 176 179 179 172 177 184 192 200 193
232 204 140 223 331 253 282 316 323 323 318 321 335 340 344 358 21 20 30 19 15 23 21 10 303 238 209 183 169 160 159 165 166 167 168 172 168 171 177 158 148 46 42 230